Weather History for K12N - June, 2013

Change the Weather History Date:

Saturday, June 29, 2013

  Actual Average (KFWN) Record (KFWN)
Temperature  
Mean Temperature 73 °F -  
Max Temperature 82 °F 80 °F 94 °F (1969)
Min Temperature 64 °F 55 °F 37 °F (1970)
Cooling Degree Days 8    
Growing Degree Days 23 (Base 50)    
Moisture  
Dew Point 64 °F    
Average Humidity 76    
Maximum Humidity 93    
Minimum Humidity 51    
Precipitation  
Precipitation 0.00 in - - ()
Sea Level Pressure  
Sea Level Pressure 29.59 in    
Wind  
Wind Speed 2 mph (SW)    
Max Wind Speed 9 mph    
Max Gust Speed -    
Averages and records for this station are not official NWS values.
T = Trace of Precipitation, MM = Missing Value Source: NWS Daily Summary

Daily Weather History Graph

Daily Weather History Graph

Search for Another Location

Airport or City:

Trip Planner

Search our weather history database for the weather conditions in past years. The results will help you decide how hot, cold, wet, or windy it might be!

Date:

Astronomy

Jun. 29, 2013 Rise Set
Actual Time 5:29 AM EDT 8:35 PM EDT
Civil Twilight 4:56 AM EDT 9:08 PM EDT
Nautical Twilight 4:13 AM EDT 9:51 PM EDT
Astronomical Twilight 3:22 AM EDT 10:41 PM EDT
Moon No Moon Rise 12:42 PM EDT (6/29)
Length of Visible Light 16h 12m
Length of Day
15h 05m
Waning Gibbous, 56% of the Moon is Illuminated
Jun 29
Waning Gibbous
Jun 30
Last Quarter
Jul 8
New
Jul 15
First Quarter
Jul 22
Full

Hourly Weather History & Observations

Time (EDT) Temp. Heat Index Dew Point Humidity Pressure Visibility Wind Dir Wind Speed Gust Speed Precip Events Conditions
12:54 AM 66.9 °F - 64.0 °F 90% 29.49 in - Calm Calm - N/A   Unknown
1:54 AM 66.9 °F - 64.0 °F 90% 29.50 in - Calm Calm - N/A   Unknown
2:54 AM 66.0 °F - 64.0 °F 93% 29.49 in - Calm Calm - N/A   Unknown
3:54 AM 66.9 °F - 64.0 °F 90% 29.50 in - Calm Calm - N/A   Unknown
4:00 AM - - - N/A% - - North - - N/A   Unknown
4:54 AM 64.9 °F - 63.0 °F 93% 29.52 in - Calm Calm - N/A   Unknown
5:54 AM 64.0 °F - 62.1 °F 93% 29.54 in - Calm Calm - N/A   Unknown
6:54 AM 66.9 °F - 64.0 °F 90% 29.56 in - Calm Calm - N/A   Unknown
7:54 AM 68.0 °F - 64.9 °F 90% 29.57 in - Calm Calm - N/A   Unknown
8:54 AM 70.0 °F - 64.9 °F 84% 29.59 in - SW 3.5 mph - N/A   Unknown
9:54 AM 72.0 °F - 64.9 °F 78% 29.59 in - SSW 3.5 mph - N/A   Unknown
10:54 AM 75.9 °F - 64.0 °F 67% 29.59 in - SSW 8.1 mph - N/A   Unknown
11:54 AM 78.1 °F - 64.9 °F 64% 29.60 in - Variable 5.8 mph - N/A   Unknown
12:54 PM 79.0 °F - 64.0 °F 60% 29.60 in - Variable 5.8 mph - N/A   Unknown
1:54 PM 81.0 °F 82.2 °F 63.0 °F 54% 29.59 in - Variable 5.8 mph - N/A   Unknown
2:54 PM 81.0 °F 82.5 °F 64.0 °F 56% 29.60 in - Variable 5.8 mph - N/A   Unknown
3:54 PM 82.0 °F 83.4 °F 64.0 °F 54% 29.60 in - SW 6.9 mph - N/A   Unknown
4:54 PM 82.0 °F 83.1 °F 63.0 °F 52% 29.61 in - SW 9.2 mph - N/A   Unknown
5:54 PM 82.0 °F 83.0 °F 62.1 °F 51% 29.61 in - SW 5.8 mph - N/A   Unknown
6:54 PM 81.0 °F 81.9 °F 62.1 °F 52% 29.62 in - SW 5.8 mph - N/A   Unknown
7:54 PM 77.0 °F - 66.0 °F 69% 29.64 in - Calm Calm - N/A   Unknown
8:54 PM 71.1 °F - 66.0 °F 84% 29.67 in - Calm Calm - N/A   Unknown
9:54 PM 70.0 °F - 66.0 °F 87% 29.69 in - Calm Calm - N/A   Unknown
10:54 PM 68.0 °F - 64.0 °F 87% 29.69 in - Calm Calm - N/A   Unknown
11:54 PM 66.9 °F - 64.9 °F 93% 29.70 in - Calm Calm - N/A   Unknown